Simultaneous Nadir Overpasses (SNOs) Predictions

Prediction of SNOs between FY3D and NOAA-19 Satellite Orbit:

Table of predicted SNOs for the next 14.0 days since TLE Epoch: 8/19/2022
Index Date (FY3D) Time (FY3D) Lat,Lon (FY3D) SZA (FY3D ) Date (NOAA-19) Time (NOAA-19) Lat,Lon (NOAA-19) SZA (NOAA-19 ) Distance(km) Time Diff (sec)
1 08/31/2022 17:36:22 76.84, -97.30 68.68 08/31/2022 17:35:18 76.83,-101.08 68.94 95.77 64
2 08/31/2022 18:27:18 -77.28, 68.12 110.77 08/31/2022 18:26:13 -77.26, 68.10 110.77 2.39 65
3 08/31/2022 19:18:03 77.26,-124.45 69.22 08/31/2022 19:17:07 77.28,-124.54 69.26 3.25 56
4 08/31/2022 20:08:48 -77.27, 42.80 110.76 08/31/2022 20:08:11 -77.29, 42.75 110.73 2.85 37
5 08/31/2022 20:59:34 77.29,-149.97 69.28 08/31/2022 20:59:05 77.31,-149.89 69.30 3.29 29
6 08/31/2022 21:50:20 -77.30, 17.29 110.70 08/31/2022 21:50:11 -77.28, 17.21 110.71 2.55 9
7 08/31/2022 22:41:06 77.32,-175.48 69.34 08/31/2022 22:41:05 77.30,-175.43 69.32 2.10 1
8 08/31/2022 23:31:52 -77.33, -8.22 110.64 08/31/2022 23:32:10 -77.32, -8.13 110.66 2.62 18
9 09/01/2022 00:22:37 77.31, 159.20 69.35 09/01/2022 00:23:04 77.33, 159.23 69.37 3.38 27
10 09/01/2022 01:13:23 -77.32, -33.54 110.63 09/01/2022 01:14:10 -77.31, -33.68 110.64 3.39 47
11 09/01/2022 02:04:09 77.33, 133.69 69.41 09/01/2022 02:05:04 77.33, 133.69 69.39 1.01 55
12 09/01/2022 02:54:55 -77.35, -59.06 110.57 09/01/2022 02:56:09 -77.34, -59.02 110.60 1.25 74
13 09/01/2022 03:45:49 77.70, 106.60 69.89 09/01/2022 03:46:55 77.68, 109.97 69.66 79.94 66



Historial Predications of SNOs between FY3D and NOAA-19
